UOSAT 2 (UO-11)

Last updated on Fri Sep 19 2025 00:03:09 GMT+0000 (Coordinated Universal Time)

1 14781U 84021B 25261.23266574 .00001512 00000+0 16375-3 0 9990 2 14781 97.7664 225.6836 0008154 16.2916 343.8563 14.89677715216621
UTC large
Height (km)
Speed (km/s)
/
Latitude / Longitude
Inclination (degrees)
Orbital Period (minutes)
Azimuth
Elevation
Range (km)
Doppler Factor

Next 0 passes for location: London (51.5072 / 0.1276)

Sorry there are no passes over London.